Location: Grust
(42.8833°N, 0.0333°W)
Time: 19:34:12
(UTC+00:00)

COSMO-SKYMED 1 - Pass Details

Date: 25 October 2020
Orbit: 621 x 623 km, 97.9° (Epoch: 23 November)

Event Time Altitude Azimuth Distance (km) Brightness Sun altitude
Rises 17:26:12 0° 23° (NNE) 2,912 5.7 -5.2°
Reaches altitude 10° 17:28:37 10° 34° (NNE) 2,000 4.8 -5.6°
Maximum altitude 17:32:29 31° 96° (E) 1,106 3.4 -6.3°
Drops below altitude 10° 17:36:19 10° 159° (SSE) 1,985 5.1 -7.0°
Sets 17:38:42 0° 170° (S) 2,885 6.0 -7.4°
